Showing default

KSM1-C, 46906

Orbit data source: Space-Track

KSM1-C, 46906 is a payload satellite owned by Kleos Space (LU) in LEO that was launched on Sat, 07 Nov 2020 UTC via a PSLV-DL launch vehicle from the Sirharikota (SRI). Payloads include a variety of satellites, spacecraft, and rockets equipped with specific instruments for various scientific and technological missions. These include communications satellites like Starlink; space stations such as the ISS; scientific satellites like the Hubble; Earth observation satellites from companies like Planet Labs, Umbra, and HawkEye 360; GPS; miniature CubeSats for education and research; and military/defense satellites.

Loading next visibility...
KSM1-C details
Identifier
46906, 2020-081B
Orbit
LEO
Last TLE update18 hours ago
Origin
Flag of LUKleos Space (LU / LUXE)
ManufacturerGOMSpace
MissionOperational Commercial Sigint
Bus & MotorCUBESAT 6U, Unknown motor
Mass~10 kg wet, ~10 kg dry
Launch date (UTC)
2020-11-07 (4 years ago)
Launch vehicle
PSLV-DL
Launch site
Sirharikota (SRI)
Object type
Payload
Rocket body
Debris
Shape & HBRBox, 0.3 m
Radar Cross Section0.080 m², Small (<0.1 m²)

Expand to show TLE details & history

TLE from 18 hours ago
0 KSM1-C
1 46906U 20081B   24360.65233477  .00016907  00000-0  90114-3 0  9999
2 46906  36.8933 114.2768 0004430  65.9514 294.1694 15.14510562227207
Epoch: 2024-12-25T15:39Z
Definitive object data (Epoch: 2024-12-25T15:39:21.724Z)
Latitude-0.00004°
Longitude144.79323°
Altitude520.325 km
Speed7.606 km/s
True Right ascension07h 37m 06s
True Declination0° 00' 00"
Sunlit
Object was in full shadow at TLE epoch
Visualization TLE readout
Latitude-29.34901°
Longitude8.2969°
Altitude532.394 km
Speed7.596 km/s
Apparent Right ascension22h 02m 11s
Apparent Declination-34° 30' 44"
Sunlit
Object is in daylight
Visualization observer readout
Local Sidereal Time09:26:31
Azimuth304.512° NW
Elevation-81.086°
Doppler factor1
Orbital elements
Apogee altitude528.46 km
Perigee altitude522.344 km
Semi-major axis6,903.539 km
Eccentricity0.000443
Inclination36.8933°
RAAN114.2768°
Arg. of periapsis65.9514°
True anomaly294.12308°
Mean anomaly294.1694°
Eccentric anomaly294.14624°
Mean motion3.78386 °/min
BSTAR0.00090114
Orbital period95.14 mins
Loading maneuver chart data...
Loading historical data...
Loading historical data...
Loading historical data...
Loading historical data...
Loading historical data...
Loading historical data...
Loading historical data...

KSM1-C Visibility forecast

Observer location: undefined°, undefined

Span
Click to sort rows by Start time (UTC) header in descending order
Start Az.
Max El. time (UTC)
Max El. Az.
Max El.
End time (UTC)
End Az.
4 mins2024-12-26 10:51:24.168Z185.607° SSW2024-12-26 10:53:24.168Z152.038° SSE15.858°2024-12-26 10:55:24.168Z118.831° SE
6 mins2024-12-26 12:30:24.168Z232.075° WSW2024-12-26 12:33:24.168Z155.411° SSE33.332°2024-12-26 12:36:24.168Z98.794° ESE
6 mins2024-12-26 14:10:24.168Z256.025° W2024-12-26 14:13:24.168Z168.821° S38.651°2024-12-26 14:16:24.168Z108.346° ESE
5 mins2024-12-26 15:51:24.168Z242.369° WSW2024-12-26 15:53:24.168Z191.227° SSW26.731°2024-12-26 15:56:24.168Z138.517° SSE
|